CZ-4C DEB, 42672

Orbit data source: Space-Track

CZ-4C DEB, 42672 is space debris in SSO originally from a launch on Thu, 26 Nov 2015 UTC launched from the Taiyaun Space Center, China (TSC). Debris objects in space refer to the collection of defunct objects orbiting the Earth. Examples of debris include non-operational satellites, rocket bodies, and fragments generated from explosions, collisions, or faulty payload assembly.

Loading next visibility...
Identifier
42672, 2015-069E
Orbit
SSO
Country
Flag of CNCN / PRC
Related business
Manufacturer
Unknown
Mission
Spacecraft
Bus & Motor
Unknown
Mass
Unknown
Launch date (UTC)
2015-11-26 (10 years ago)
Launch vehicle
Unknown
Launch site
Taiyaun Space Center, China (TSC)
Object type
Payload
Rocket body
Debris
Shape & HBR
Unknown shape, 0.1 m
Radar Cross Section
Small (<0.1 m²)

Expand to show TLE details & history
Last TLE update: 8 hours ago

TLE from 8 hours ago
0 CZ-4C DEB
1 42672U 15069E   26034.38372568  .00024320  00000-0  18414-2 0  9990
2 42672  98.2778  16.1585 0081665  35.8375 324.8287 14.99625229539029
Epoch: 2026-02-03T09:12Z
TLE epoch observation values (Epoch: 2026-02-03T09:12:33.898Z)
Latitude
-0.00005°
Longitude
104.45183°
Altitude
524.866 km
Speed
7.626 km/s
True Right ascension
01h 04m 38s
True Declination
0° 00' 00"
Sunlit
Object was in daylight at epoch
Visualization orbit readout
Latitude
Unknown
Longitude
Unknown
Altitude
Unknown
Speed
Unknown
Apparent Right ascension
Unknown
Apparent Declination
Unknown
Sunlit
N/A
Visualization observer readout
Local Sidereal Time
18:57:18
Azimuth
Unknown
Elevation
Unknown
Doppler factor
Unknown
Orbital elements
Apogee altitude
621.787 km
Perigee altitude
508.383 km
Semi-major axis
6,943.222 km
Eccentricity
0.00817
Inclination
98.2778°
RAAN
16.1585°
Arg. of periapsis
35.8375°
True anomaly
324.28512°
Mean anomaly
324.8287°
Eccentric anomaly
324.55737°
Mean motion
3.75147 °/min
Orbital period
95.96 mins
BSTAR
0.0018414
Loading maneuver chart data...
Computing Atmospheric mass density...
Loading historical data...
Loading historical data...
Loading historical data...
Loading historical data...
Loading historical data...
Loading historical data...
Loading historical data...
Other satellites on launch #69 in the year 2015 (2015-11-26 UTC)

Documentation

Showing up to 5 results
|